Location: Newark
(51.0500°N, 12.4500°E)
Time: 19:23:18
(UTC+00:00)

Transit 2A - Visible Passes

Search period start: 28 February 2020 00:00
Search period end: 09 March 2020 00:00
Orbit: 599 x 959 km, 66.7° (Epoch: 28 February)

Date Brightness Start Highest point End Pass type
(mag) Time Alt. Az. Time Alt. Az. Time Alt. Az.
28 Feb 7.0 17:32:06 10° NNW 17:36:20 28° NE 17:40:37 11° E visible
28 Feb 6.0 19:14:55 10° NW 19:19:58 78° SW 19:21:09 55° SSE visible
28 Feb 8.5 20:59:33 10° WNW 21:01:40 15° W 21:01:40 15° W visible
29 Feb 5.9 18:40:47 10° NW 18:45:50 80° NE 18:48:33 31° SE visible
29 Feb 8.0 20:24:43 10° WNW 20:28:36 21° WSW 20:29:04 21° WSW visible
01 Mar 6.1 18:06:40 10° NNW 18:11:39 60° NE 18:16:03 16° SE visible
01 Mar 7.7 19:50:11 10° NW 19:54:37 29° WSW 19:56:36 23° SSW visible
02 Mar 6.4 17:32:35 10° NNW 17:37:26 46° NE 17:42:45 10° ESE visible
02 Mar 7.2 19:15:49 10° NW 19:20:36 40° WSW 19:24:16 18° S visible
03 Mar 6.7 18:41:32 10° NW 18:46:33 54° WSW 18:52:04 10° SSE visible
04 Mar 6.3 18:07:20 10° NW 18:12:27 74° SW 18:18:06 10° SSE visible
04 Mar 8.7 19:52:08 10° WNW 19:54:57 14° WSW 19:57:52 10° SW visible
05 Mar 6.1 17:33:11 10° NW 17:38:19 84° NE 17:44:00 10° SE visible
05 Mar 8.4 19:17:14 10° WNW 19:21:02 20° WSW 19:25:04 10° SSW visible
06 Mar 8.0 18:42:39 10° WNW 18:47:04 28° WSW 18:51:50 10° S visible
07 Mar 7.6 18:08:15 10° NW 18:13:04 38° WSW 18:18:18 10° S visible
08 Mar 7.1 17:33:58 10° NW 17:39:00 51° WSW 17:44:33 10° SSE visible
